Home   Weather   Kaohsiung   Past weeks

Flag for Taiwan Past Weather in Kaohsiung, Taiwan — Yesterday and Last 2 Weeks

Now
73 °F

Passing clouds.


Feels Like: 75 °F
Forecast: 67 / 85 °F
Wind: 5 mph from East

Location: Kaohsiung International Airport

Current Time: May 1, 2017 at 2:50:50 am

Latest Report: May 1, 2017 at 2:00 am


Visibility: N/A

Pressure: 29.95 "Hg

Humidity: 74%

Dew Point: 64 °F

Location of KaohsiungLocation

Past Weather in Kaohsiung — Graph

°F

Kaohsiung Temperature Yesterday

Maximum temperature yesterday: 84 °F (at 9:30 am)
Minimum temperature yesterday: 70 °F (at 3:00 am)
Average temperature yesterday: 78 °F

High & Low Weather Summary for the Past Weeks

 TemperatureHumidityPressure
High90 °F (Apr 16, 1:00 pm)100% (Apr 22, 7:34 am)30.01 "Hg (Apr 22, 7:34 am)
Low66 °F (Apr 28, 4:00 am)33% (Apr 19, 3:00 pm)29.74 "Hg (Apr 21, 3:00 pm)
Average79 °F74%29.88 "Hg
* Reported Apr 16 1:00 am — May 1 1:00 am, Kaohsiung, Weather by CustomWeather, © 2017

Note: Actual official high and low records may vary slightly from our data, if they occured in-between our weather recording intervals... More about our weather records

Advertising

Kaohsiung Weather History for the Previous 24 Hours

Scroll right to see more
 ConditionsComfort  
Time TempWeatherWind HumidityBarometerVisibility
1:00 am
Mon, May 1
75 °FPassing clouds.7 mph61%29.95 "HgN/A
12:00 am73 °FPassing clouds.5 mph74%29.95 "HgN/A
11:30 pm
Sun, Apr 30
77 °FPassing clouds.3 mph65%29.95 "HgN/A
11:00 pm77 °FPassing clouds.2 mph65%29.95 "HgN/A
10:30 pm77 °FPassing clouds.2 mph65%29.95 "HgN/A
10:00 pm77 °FPassing clouds.3 mph69%29.95 "HgN/A
9:30 pm79 °FPassing clouds.3 mph65%29.95 "HgN/A
9:00 pm77 °FPassing clouds.3 mph65%29.95 "HgN/A
8:30 pm77 °FPassing clouds.3 mph65%29.92 "HgN/A
8:00 pm77 °FPassing clouds.5 mph65%29.92 "HgN/A
7:30 pm77 °FPassing clouds.6 mph65%29.92 "HgN/A
7:00 pm77 °FPassing clouds.6 mph65%29.92 "HgN/A
6:30 pm77 °FPassing clouds.6 mph65%29.92 "HgN/A
6:00 pm79 °FPassing clouds.8 mph61%29.92 "HgN/A
5:30 pm79 °FPassing clouds.8 mph61%29.89 "HgN/A
5:00 pm81 °FPassing clouds.8 mph58%29.89 "HgN/A
4:30 pm81 °FPassing clouds.9 mph54%29.89 "HgN/A
4:00 pm82 °FPassing clouds.7 mph51%29.89 "HgN/A
3:30 pm82 °FPassing clouds.10 mph51%29.89 "HgN/A
3:21 pm82 °FPassing clouds.10 mph51%29.89 "HgN/A
3:00 pm84 °FPassing clouds.10 mph48%29.89 "HgN/A
2:30 pm84 °FScattered clouds.13 mph45%29.89 "HgN/A
2:00 pm82 °FPassing clouds.13 mph51%29.89 "HgN/A
1:30 pm84 °FPassing clouds.14 mph48%29.89 "HgN/A
1:00 pm84 °FPassing clouds.13 mph51%29.92 "HgN/A
12:30 pm84 °FPassing clouds.14 mph51%29.92 "HgN/A
11:47 am84 °FPassing clouds.13 mph48%29.92 "HgN/A
11:30 am82 °FPassing clouds.10 mph51%29.92 "HgN/A
11:00 am82 °FPassing clouds.12 mph51%29.95 "HgN/A
10:30 am82 °FPassing clouds.6 mph51%29.95 "HgN/A
10:00 am81 °FPassing clouds.6 mph54%29.95 "HgN/A
9:30 am84 °FPassing clouds.3 mph48%29.95 "HgN/A
9:00 am81 °FPassing clouds.5 mph54%29.95 "HgN/A
8:30 am79 °FPassing clouds.5 mph58%29.95 "HgN/A
8:00 am77 °FPassing clouds.6 mph61%29.95 "HgN/A
7:30 am75 °FPassing clouds.6 mph65%29.95 "HgN/A
7:00 am73 °FScattered clouds.6 mph69%29.95 "HgN/A
6:30 am72 °FScattered clouds.3 mph73%29.95 "HgN/A
6:00 am70 °FScattered clouds.3 mph73%29.95 "HgN/A
5:00 am70 °FPassing clouds.3 mph73%29.92 "HgN/A
4:00 am70 °FPassing clouds.5 mph78%29.92 "HgN/A
3:00 am70 °FPassing clouds.6 mph78%29.92 "HgN/A
2:00 am72 °FPassing clouds.3 mph73%29.92 "HgN/A
Weather by CustomWeather, © 2017

See weather overviewHow to use our weather pages